Year,Month,Day,Hour,Minute,Value (Times are PST for temperature in C)
2018,03,28,00,00,7.40
2018,03,28,00,01,7.40
2018,03,28,00,02,7.40
2018,03,28,00,03,7.40
2018,03,28,00,04,7.40
2018,03,28,00,05,7.40
2018,03,28,00,06,7.40
2018,03,28,00,07,7.50
2018,03,28,00,08,7.50
2018,03,28,00,09,7.50
2018,03,28,00,10,7.60
2018,03,28,00,11,7.60
2018,03,28,00,12,7.60
2018,03,28,00,13,7.60
2018,03,28,00,14,7.60
2018,03,28,00,15,7.70
2018,03,28,00,16,7.70
2018,03,28,00,17,7.70
2018,03,28,00,18,7.70
2018,03,28,00,19,7.70
2018,03,28,00,20,7.70
2018,03,28,00,21,7.70
2018,03,28,00,22,7.70
2018,03,28,00,23,7.70
2018,03,28,00,24,7.60
2018,03,28,00,25,7.60
2018,03,28,00,26,7.60
2018,03,28,00,27,7.60
2018,03,28,00,28,7.60
2018,03,28,00,29,7.60
2018,03,28,00,30,7.60
2018,03,28,00,31,7.60
2018,03,28,00,32,7.60
2018,03,28,00,33,7.60
2018,03,28,00,34,7.60
2018,03,28,00,35,7.60
2018,03,28,00,36,7.50
2018,03,28,00,37,7.50
2018,03,28,00,38,7.50
2018,03,28,00,39,7.50
2018,03,28,00,40,7.40
2018,03,28,00,41,7.40
2018,03,28,00,42,7.50
2018,03,28,00,43,7.40
2018,03,28,00,44,7.40
2018,03,28,00,45,7.40
2018,03,28,00,46,7.40
2018,03,28,00,47,7.40
2018,03,28,00,48,7.40
2018,03,28,00,49,7.40
2018,03,28,00,50,7.40
2018,03,28,00,51,7.40
2018,03,28,00,52,7.40
2018,03,28,00,53,7.40
2018,03,28,00,54,7.40
2018,03,28,00,55,7.40
2018,03,28,00,56,7.40
2018,03,28,00,57,7.30
2018,03,28,00,58,7.40
2018,03,28,00,59,7.30
2018,03,28,01,00,7.30
2018,03,28,01,01,7.30
2018,03,28,01,02,7.30
2018,03,28,01,03,7.30
2018,03,28,01,04,7.30
2018,03,28,01,05,7.30
2018,03,28,01,06,7.30
2018,03,28,01,07,7.30
2018,03,28,01,08,7.30
2018,03,28,01,09,7.30
2018,03,28,01,10,7.30
2018,03,28,01,11,7.30
2018,03,28,01,12,7.30
2018,03,28,01,13,7.30
2018,03,28,01,14,7.30
2018,03,28,01,15,7.30
2018,03,28,01,16,7.30
2018,03,28,01,17,7.30
2018,03,28,01,18,7.30
2018,03,28,01,19,7.30
2018,03,28,01,20,7.30
2018,03,28,01,21,7.30
2018,03,28,01,22,7.30
2018,03,28,01,23,7.30
2018,03,28,01,24,7.30
2018,03,28,01,25,7.30
2018,03,28,01,26,7.30
2018,03,28,01,27,7.30
2018,03,28,01,28,7.30
2018,03,28,01,29,7.30
2018,03,28,01,30,7.30
2018,03,28,01,31,7.30
2018,03,28,01,32,7.30
2018,03,28,01,33,7.30
2018,03,28,01,34,7.30
2018,03,28,01,35,7.30
2018,03,28,01,36,7.30
2018,03,28,01,37,7.30
2018,03,28,01,38,7.30
2018,03,28,01,39,7.30
2018,03,28,01,40,7.30
2018,03,28,01,41,7.30
2018,03,28,01,42,7.30
2018,03,28,01,43,7.30
2018,03,28,01,44,7.30
2018,03,28,01,45,7.30
2018,03,28,01,46,7.30
2018,03,28,01,47,7.30
2018,03,28,01,48,7.30
2018,03,28,01,49,7.30
2018,03,28,01,50,7.30
2018,03,28,01,51,7.30
2018,03,28,01,52,7.30
2018,03,28,01,53,7.30
2018,03,28,01,54,7.30
2018,03,28,01,55,7.30
2018,03,28,01,56,7.30
2018,03,28,01,57,7.30
2018,03,28,01,58,7.40
2018,03,28,01,59,7.30
2018,03,28,02,00,7.30
2018,03,28,02,01,7.40
2018,03,28,02,02,7.40
2018,03,28,02,03,7.40
2018,03,28,02,04,7.30
2018,03,28,02,05,7.30
2018,03,28,02,06,7.30
2018,03,28,02,07,7.30
2018,03,28,02,08,7.30
2018,03,28,02,09,7.30
2018,03,28,02,10,7.30
2018,03,28,02,11,7.30
2018,03,28,02,12,7.30
2018,03,28,02,13,7.30
2018,03,28,02,14,7.30
2018,03,28,02,15,7.30
2018,03,28,02,16,7.30
2018,03,28,02,17,7.30
2018,03,28,02,18,7.30
2018,03,28,02,19,7.40
2018,03,28,02,20,7.40
2018,03,28,02,21,7.40
2018,03,28,02,22,7.40
2018,03,28,02,23,7.40
2018,03,28,02,24,7.40
2018,03,28,02,25,7.40
2018,03,28,02,26,7.40
2018,03,28,02,27,7.40
2018,03,28,02,28,7.40
2018,03,28,02,29,7.30
2018,03,28,02,30,7.30
2018,03,28,02,31,7.30
2018,03,28,02,32,7.30
2018,03,28,02,33,7.30
2018,03,28,02,34,7.30
2018,03,28,02,35,7.30
2018,03,28,02,36,7.30
2018,03,28,02,37,7.30
2018,03,28,02,38,7.30
2018,03,28,02,39,7.30
2018,03,28,02,40,7.30
2018,03,28,02,41,7.30
2018,03,28,02,42,7.30
2018,03,28,02,43,7.30
2018,03,28,02,44,7.30
2018,03,28,02,45,7.30
2018,03,28,02,46,7.30
2018,03,28,02,47,7.30
2018,03,28,02,48,7.30
2018,03,28,02,49,7.30
2018,03,28,02,50,7.20
2018,03,28,02,51,7.20
2018,03,28,02,52,7.20
2018,03,28,02,53,7.20
2018,03,28,02,54,7.20
2018,03,28,02,55,7.20
2018,03,28,02,56,7.20
2018,03,28,02,57,7.20
2018,03,28,02,58,7.20
2018,03,28,02,59,7.20
2018,03,28,03,00,7.10
2018,03,28,03,01,7.10
2018,03,28,03,02,7.20
2018,03,28,03,03,7.20
2018,03,28,03,04,7.20
2018,03,28,03,05,7.20
2018,03,28,03,06,7.10
2018,03,28,03,07,7.10
2018,03,28,03,08,7.10
2018,03,28,03,09,7.20
2018,03,28,03,10,7.10
2018,03,28,03,11,7.10
2018,03,28,03,12,7.10
2018,03,28,03,13,7.10
2018,03,28,03,14,7.10
2018,03,28,03,15,7.10
2018,03,28,03,16,7.10
2018,03,28,03,17,7.10
2018,03,28,03,18,7.10
2018,03,28,03,19,7.10
2018,03,28,03,20,7.10
2018,03,28,03,21,7.10
2018,03,28,03,22,7.10
2018,03,28,03,23,7.10
2018,03,28,03,24,7.10
2018,03,28,03,25,7.10
2018,03,28,03,26,7.10
2018,03,28,03,27,7.10
2018,03,28,03,28,7.10
2018,03,28,03,29,7.10
2018,03,28,03,30,7.10
2018,03,28,03,31,7.10
2018,03,28,03,32,7.10
2018,03,28,03,33,7.10
2018,03,28,03,34,7.10
2018,03,28,03,35,7.10
2018,03,28,03,36,7.10
2018,03,28,03,37,7.10
2018,03,28,03,38,7.10
2018,03,28,03,39,7.10
2018,03,28,03,40,7.10
2018,03,28,03,41,7.00
2018,03,28,03,42,7.00
2018,03,28,03,43,7.00
2018,03,28,03,44,7.00
2018,03,28,03,45,7.00
2018,03,28,03,46,7.00
2018,03,28,03,47,7.00
2018,03,28,03,48,7.00
2018,03,28,03,49,7.00
2018,03,28,03,50,7.00
2018,03,28,03,51,7.00
2018,03,28,03,52,7.00
2018,03,28,03,53,6.90
2018,03,28,03,54,6.90
2018,03,28,03,55,6.90
2018,03,28,03,56,6.90
2018,03,28,03,57,6.90
2018,03,28,03,58,6.90
2018,03,28,03,59,6.90
2018,03,28,04,00,6.90
2018,03,28,04,01,6.90
2018,03,28,04,02,6.90
2018,03,28,04,03,6.90
2018,03,28,04,04,6.90
2018,03,28,04,05,6.90
2018,03,28,04,06,6.90
2018,03,28,04,07,6.90
2018,03,28,04,08,6.90
2018,03,28,04,09,6.80
2018,03,28,04,10,6.80
2018,03,28,04,11,6.80
2018,03,28,04,12,6.80
2018,03,28,04,13,6.80
2018,03,28,04,14,6.80
2018,03,28,04,15,6.80
2018,03,28,04,16,6.80
2018,03,28,04,17,6.80
2018,03,28,04,18,6.70
2018,03,28,04,19,6.60
2018,03,28,04,20,6.50
2018,03,28,04,21,6.50
2018,03,28,04,22,6.40
2018,03,28,04,23,6.40
2018,03,28,04,24,6.40
2018,03,28,04,25,6.30
2018,03,28,04,26,6.30
2018,03,28,04,27,6.30
2018,03,28,04,28,6.30
2018,03,28,04,29,6.30
2018,03,28,04,30,6.30
2018,03,28,04,31,6.30
2018,03,28,04,32,6.30
2018,03,28,04,33,6.30
2018,03,28,04,34,6.40
2018,03,28,04,35,6.40
2018,03,28,04,36,6.40
2018,03,28,04,37,6.40
2018,03,28,04,38,6.40
2018,03,28,04,39,6.40
2018,03,28,04,40,6.40
2018,03,28,04,41,6.50
2018,03,28,04,42,6.50
2018,03,28,04,43,6.50
2018,03,28,04,44,6.50
2018,03,28,04,45,6.50
2018,03,28,04,46,6.50
2018,03,28,04,47,6.40
2018,03,28,04,48,6.40
2018,03,28,04,49,6.40
2018,03,28,04,50,6.30
2018,03,28,04,51,6.30
2018,03,28,04,52,6.20
2018,03,28,04,53,6.20
2018,03,28,04,54,6.20
2018,03,28,04,55,6.20
2018,03,28,04,56,6.20
2018,03,28,04,57,6.20
2018,03,28,04,58,6.20
2018,03,28,04,59,6.10
2018,03,28,05,00,6.10
2018,03,28,05,01,6.10
2018,03,28,05,02,6.10
2018,03,28,05,03,6.10
2018,03,28,05,04,6.10
2018,03,28,05,05,6.10
2018,03,28,05,06,6.10
2018,03,28,05,07,6.10
2018,03,28,05,08,6.10
2018,03,28,05,09,6.10
2018,03,28,05,10,6.00
2018,03,28,05,11,6.00
2018,03,28,05,12,6.00
2018,03,28,05,13,6.00
2018,03,28,05,14,6.00
2018,03,28,05,15,6.00
2018,03,28,05,16,6.00
2018,03,28,05,17,6.00
2018,03,28,05,18,6.10
2018,03,28,05,19,6.10
2018,03,28,05,20,6.10
2018,03,28,05,21,6.10
2018,03,28,05,22,6.10
2018,03,28,05,23,6.10
2018,03,28,05,24,6.10
2018,03,28,05,25,6.10
2018,03,28,05,26,6.10
2018,03,28,05,27,6.10
2018,03,28,05,28,6.10
2018,03,28,05,29,6.10
2018,03,28,05,30,6.10
2018,03,28,05,31,6.10
2018,03,28,05,32,6.10
2018,03,28,05,33,6.10
2018,03,28,05,34,6.10
2018,03,28,05,35,6.10
2018,03,28,05,36,6.10
2018,03,28,05,37,6.10
2018,03,28,05,38,6.10
2018,03,28,05,39,6.00
2018,03,28,05,40,6.00
2018,03,28,05,41,6.00
2018,03,28,05,42,6.00
2018,03,28,05,43,6.00
2018,03,28,05,44,6.00
2018,03,28,05,45,6.00
2018,03,28,05,46,6.00
2018,03,28,05,47,6.00
2018,03,28,05,48,6.00
2018,03,28,05,49,6.00
2018,03,28,05,50,6.00
2018,03,28,05,51,6.00
2018,03,28,05,52,6.00
2018,03,28,05,53,6.00
2018,03,28,05,54,6.00
2018,03,28,05,55,6.00
2018,03,28,05,56,6.00
2018,03,28,05,57,6.00
2018,03,28,05,58,5.90
2018,03,28,05,59,5.90
2018,03,28,06,00,5.90
2018,03,28,06,01,5.90
2018,03,28,06,02,5.90
2018,03,28,06,03,5.90
2018,03,28,06,04,5.90
2018,03,28,06,05,5.80
2018,03,28,06,06,5.80
2018,03,28,06,07,5.80
2018,03,28,06,08,5.80
2018,03,28,06,09,5.80
2018,03,28,06,10,5.80
2018,03,28,06,11,5.80
2018,03,28,06,12,5.80
2018,03,28,06,13,5.80
2018,03,28,06,14,5.80
2018,03,28,06,15,5.80
2018,03,28,06,16,5.80
2018,03,28,06,17,5.80
2018,03,28,06,18,5.80
2018,03,28,06,19,5.80
2018,03,28,06,20,5.80
2018,03,28,06,21,5.80
2018,03,28,06,22,5.80
2018,03,28,06,23,5.80
2018,03,28,06,24,5.80
2018,03,28,06,25,5.80
2018,03,28,06,26,5.80
2018,03,28,06,27,5.80
2018,03,28,06,28,5.80
2018,03,28,06,29,5.80
2018,03,28,06,30,5.80
2018,03,28,06,31,5.80
2018,03,28,06,32,5.80
2018,03,28,06,33,5.80
2018,03,28,06,34,5.80
2018,03,28,06,35,5.80
2018,03,28,06,36,5.80
2018,03,28,06,37,5.80
2018,03,28,06,38,5.80
2018,03,28,06,39,5.80
2018,03,28,06,40,5.80
2018,03,28,06,41,5.80
2018,03,28,06,42,5.80
2018,03,28,06,43,5.80
2018,03,28,06,44,5.80
2018,03,28,06,45,5.80
2018,03,28,06,46,5.80
2018,03,28,06,47,5.80
2018,03,28,06,48,5.80
2018,03,28,06,49,5.80
2018,03,28,06,50,5.80
2018,03,28,06,51,5.80
2018,03,28,06,52,5.80
2018,03,28,06,53,5.80
2018,03,28,06,54,5.80
2018,03,28,06,55,5.80
2018,03,28,06,56,5.80
2018,03,28,06,57,5.80
2018,03,28,06,58,5.80
2018,03,28,06,59,5.80
2018,03,28,07,00,5.80
2018,03,28,07,01,5.80
2018,03,28,07,02,5.80
2018,03,28,07,03,5.80
2018,03,28,07,04,5.80
2018,03,28,07,05,5.80
2018,03,28,07,06,5.80
2018,03,28,07,07,5.80
2018,03,28,07,08,5.80
2018,03,28,07,09,5.80
2018,03,28,07,10,5.90
2018,03,28,07,11,5.90
2018,03,28,07,12,5.90
2018,03,28,07,13,5.90
2018,03,28,07,14,5.90
2018,03,28,07,15,5.90
2018,03,28,07,16,5.90
2018,03,28,07,17,5.90
2018,03,28,07,18,5.90
2018,03,28,07,19,5.90
2018,03,28,07,20,5.90
2018,03,28,07,21,5.90
2018,03,28,07,22,5.90
2018,03,28,07,23,5.90
2018,03,28,07,24,5.90
2018,03,28,07,25,5.90
2018,03,28,07,26,5.90
2018,03,28,07,27,5.90
2018,03,28,07,28,5.90
2018,03,28,07,29,5.90
2018,03,28,07,30,5.90
2018,03,28,07,31,5.90
2018,03,28,07,32,5.90
2018,03,28,07,33,5.90
2018,03,28,07,34,5.90
2018,03,28,07,35,5.90
2018,03,28,07,36,5.90
2018,03,28,07,37,5.90
2018,03,28,07,38,5.90
2018,03,28,07,39,5.90
2018,03,28,07,40,5.90
2018,03,28,07,41,5.90
2018,03,28,07,42,6.00
2018,03,28,07,43,6.00
2018,03,28,07,44,6.00
2018,03,28,07,45,6.00
2018,03,28,07,46,6.00
2018,03,28,07,47,6.00
2018,03,28,07,48,6.00
2018,03,28,07,49,6.00
2018,03,28,07,50,6.10
2018,03,28,07,51,6.10
2018,03,28,07,52,6.10
2018,03,28,07,53,6.10
2018,03,28,07,54,6.10
2018,03,28,07,55,6.10
2018,03,28,07,56,6.10
2018,03,28,07,57,6.10
2018,03,28,07,58,6.10
2018,03,28,07,59,6.10
2018,03,28,08,00,6.10
2018,03,28,08,01,6.20
2018,03,28,08,02,6.20
2018,03,28,08,03,6.20
2018,03,28,08,04,6.20
2018,03,28,08,05,6.20
2018,03,28,08,06,6.20
2018,03,28,08,07,6.20
2018,03,28,08,08,6.20
2018,03,28,08,09,6.20
2018,03,28,08,10,6.20
2018,03,28,08,11,6.20
2018,03,28,08,12,6.20
2018,03,28,08,13,6.20
2018,03,28,08,14,6.20
2018,03,28,08,15,6.20
2018,03,28,08,16,6.20
2018,03,28,08,17,6.20
2018,03,28,08,18,6.20
2018,03,28,08,19,6.20
2018,03,28,08,20,6.20
2018,03,28,08,21,6.30
2018,03,28,08,22,6.30
2018,03,28,08,23,6.30
2018,03,28,08,24,6.30
2018,03,28,08,25,6.30
2018,03,28,08,26,6.30
2018,03,28,08,27,6.30
2018,03,28,08,28,6.30
2018,03,28,08,29,6.30
2018,03,28,08,30,6.30
2018,03,28,08,31,6.30
2018,03,28,08,32,6.40
2018,03,28,08,33,6.40
2018,03,28,08,34,6.40
2018,03,28,08,35,6.40
2018,03,28,08,36,6.40
2018,03,28,08,37,6.40
2018,03,28,08,38,6.40
2018,03,28,08,39,6.40
2018,03,28,08,40,6.50
2018,03,28,08,41,6.50
2018,03,28,08,42,6.60
2018,03,28,08,43,6.60
2018,03,28,08,44,6.60
2018,03,28,08,45,6.60
2018,03,28,08,46,6.60
2018,03,28,08,47,6.60
2018,03,28,08,48,6.70
2018,03,28,08,49,6.70
2018,03,28,08,50,6.70
2018,03,28,08,51,6.70
2018,03,28,08,52,6.70
2018,03,28,08,53,6.70
2018,03,28,08,54,6.70
2018,03,28,08,55,6.80
2018,03,28,08,56,6.80
2018,03,28,08,57,6.80
2018,03,28,08,58,6.80
2018,03,28,08,59,6.80
2018,03,28,09,00,6.80
2018,03,28,09,01,6.80
2018,03,28,09,02,6.80
2018,03,28,09,03,6.80
2018,03,28,09,04,6.90
2018,03,28,09,05,6.90
2018,03,28,09,06,6.90
2018,03,28,09,07,6.90
2018,03,28,09,08,7.00
2018,03,28,09,09,7.00
2018,03,28,09,10,7.00
2018,03,28,09,11,7.10
2018,03,28,09,12,7.10
2018,03,28,09,13,7.10
2018,03,28,09,14,7.10
2018,03,28,09,15,7.10
2018,03,28,09,16,7.20
2018,03,28,09,17,7.20
2018,03,28,09,18,7.20
2018,03,28,09,19,7.20
2018,03,28,09,20,7.30
2018,03,28,09,21,7.30
2018,03,28,09,22,7.30
2018,03,28,09,23,7.30
2018,03,28,09,24,7.40
2018,03,28,09,25,7.40
2018,03,28,09,26,7.50
2018,03,28,09,27,7.50
2018,03,28,09,28,7.50
2018,03,28,09,29,7.60
2018,03,28,09,30,7.60
2018,03,28,09,31,7.60
2018,03,28,09,32,7.60
2018,03,28,09,33,7.70
2018,03,28,09,34,7.70
2018,03,28,09,35,7.70
2018,03,28,09,36,7.70
2018,03,28,09,37,7.70
2018,03,28,09,38,7.70
2018,03,28,09,39,7.70
2018,03,28,09,40,7.80
2018,03,28,09,41,7.80
2018,03,28,09,42,7.80
2018,03,28,09,43,7.80
2018,03,28,09,44,7.90
2018,03,28,09,45,7.90
2018,03,28,09,46,7.90
2018,03,28,09,47,8.00
2018,03,28,09,48,8.00
2018,03,28,09,49,8.10
2018,03,28,09,50,8.10
2018,03,28,09,51,8.10
2018,03,28,09,52,8.20
2018,03,28,09,53,8.20
2018,03,28,09,54,8.20
2018,03,28,09,55,8.20
2018,03,28,09,56,8.20
2018,03,28,09,57,8.30
2018,03,28,09,58,8.30
2018,03,28,09,59,8.30
2018,03,28,10,00,8.30
2018,03,28,10,01,8.40
2018,03,28,10,02,8.40
2018,03,28,10,03,8.40
2018,03,28,10,04,8.40
2018,03,28,10,05,8.40
2018,03,28,10,06,8.40
2018,03,28,10,07,8.50
2018,03,28,10,08,8.50
2018,03,28,10,09,8.50
2018,03,28,10,10,8.50
2018,03,28,10,11,8.50
2018,03,28,10,12,8.50
2018,03,28,10,13,8.50
2018,03,28,10,14,8.50
2018,03,28,10,15,8.50
2018,03,28,10,16,8.50
2018,03,28,10,17,8.50
2018,03,28,10,18,8.50
2018,03,28,10,19,8.50
2018,03,28,10,20,8.50
2018,03,28,10,21,8.50
2018,03,28,10,22,8.60
2018,03,28,10,23,8.60
2018,03,28,10,24,8.60
2018,03,28,10,25,8.60
2018,03,28,10,26,8.70
2018,03,28,10,27,8.70
2018,03,28,10,28,8.70
2018,03,28,10,29,8.80
2018,03,28,10,30,8.80
2018,03,28,10,31,8.80
2018,03,28,10,32,8.80
2018,03,28,10,33,8.80
2018,03,28,10,34,8.80
2018,03,28,10,35,8.80
2018,03,28,10,36,8.80
2018,03,28,10,37,8.70
2018,03,28,10,38,8.70
2018,03,28,10,39,8.70
2018,03,28,10,40,8.70
2018,03,28,10,41,8.70
2018,03,28,10,42,8.70
2018,03,28,10,43,8.70
2018,03,28,10,44,8.70
2018,03,28,10,45,8.80
2018,03,28,10,46,8.80
2018,03,28,10,47,8.80
2018,03,28,10,48,8.80
2018,03,28,10,49,8.70
2018,03,28,10,50,8.70
2018,03,28,10,51,8.80
2018,03,28,10,52,8.80
2018,03,28,10,53,8.80
2018,03,28,10,54,8.80
2018,03,28,10,55,8.80
2018,03,28,10,56,8.80
2018,03,28,10,57,8.80
2018,03,28,10,58,8.80
2018,03,28,10,59,8.80
2018,03,28,11,00,8.80
2018,03,28,11,01,8.90
2018,03,28,11,02,8.90
2018,03,28,11,03,8.90
2018,03,28,11,04,8.90
2018,03,28,11,05,8.90
2018,03,28,11,06,8.90
2018,03,28,11,07,9.00
2018,03,28,11,08,9.00
2018,03,28,11,09,9.00
2018,03,28,11,10,9.00
2018,03,28,11,11,9.00
2018,03,28,11,12,9.00
2018,03,28,11,13,9.00
2018,03,28,11,14,9.00
2018,03,28,11,15,9.10
2018,03,28,11,16,9.10
2018,03,28,11,17,9.10
2018,03,28,11,18,9.10
2018,03,28,11,19,9.10
2018,03,28,11,20,9.10
2018,03,28,11,21,9.10
2018,03,28,11,22,9.10
2018,03,28,11,23,9.10
2018,03,28,11,24,9.10
2018,03,28,11,25,9.10
2018,03,28,11,26,9.10
2018,03,28,11,27,9.10
2018,03,28,11,28,9.10
2018,03,28,11,29,9.00
2018,03,28,11,30,9.10
2018,03,28,11,31,9.10
2018,03,28,11,32,9.10
2018,03,28,11,33,9.10
2018,03,28,11,34,9.10
2018,03,28,11,35,9.10
2018,03,28,11,36,9.10
2018,03,28,11,37,9.10
2018,03,28,11,38,9.10
2018,03,28,11,39,9.20
2018,03,28,11,40,9.20
2018,03,28,11,41,9.20
2018,03,28,11,42,9.30
2018,03,28,11,43,9.30
2018,03,28,11,44,9.30
2018,03,28,11,45,9.40
2018,03,28,11,46,9.50
2018,03,28,11,47,9.50
2018,03,28,11,48,9.60
2018,03,28,11,49,9.70
2018,03,28,11,50,9.80
2018,03,28,11,51,9.90
2018,03,28,11,52,10.00
2018,03,28,11,53,10.10
2018,03,28,11,54,10.10
2018,03,28,11,55,10.00
2018,03,28,11,56,9.90
2018,03,28,11,57,9.80
2018,03,28,11,58,9.80
2018,03,28,11,59,9.80
2018,03,28,12,00,9.80
2018,03,28,12,01,9.80
2018,03,28,12,02,9.90
2018,03,28,12,03,9.90
2018,03,28,12,04,9.90
2018,03,28,12,05,10.00
2018,03,28,12,06,10.10
2018,03,28,12,07,10.10
2018,03,28,12,08,10.10
2018,03,28,12,09,10.00
2018,03,28,12,10,10.00
2018,03,28,12,11,10.00
2018,03,28,12,12,10.00
2018,03,28,12,13,10.10
2018,03,28,12,14,10.20
2018,03,28,12,15,10.20
2018,03,28,12,16,10.20
2018,03,28,12,17,10.20
2018,03,28,12,18,10.20
2018,03,28,12,19,10.20
2018,03,28,12,20,10.20
2018,03,28,12,21,10.20
2018,03,28,12,22,10.20
2018,03,28,12,23,10.20
2018,03,28,12,24,10.20
2018,03,28,12,25,10.20
2018,03,28,12,26,10.20
2018,03,28,12,27,10.30
2018,03,28,12,28,10.30
2018,03,28,12,29,10.30
2018,03,28,12,30,10.30
2018,03,28,12,31,10.30
2018,03,28,12,32,10.30
2018,03,28,12,33,10.30
2018,03,28,12,34,10.40
2018,03,28,12,35,10.40
2018,03,28,12,36,10.40
2018,03,28,12,37,10.50
2018,03,28,12,38,10.60
2018,03,28,12,39,10.60
2018,03,28,12,40,10.70
2018,03,28,12,41,10.90
2018,03,28,12,42,11.10
2018,03,28,12,43,11.20
2018,03,28,12,44,11.30
2018,03,28,12,45,11.40
2018,03,28,12,46,11.40
2018,03,28,12,47,11.30
2018,03,28,12,48,11.20
2018,03,28,12,49,11.10
2018,03,28,12,50,11.10
2018,03,28,12,51,11.10
2018,03,28,12,52,11.20
2018,03,28,12,53,11.20
2018,03,28,12,54,11.20
2018,03,28,12,55,11.20
2018,03,28,12,56,11.10
2018,03,28,12,57,11.20
2018,03,28,12,58,11.30
2018,03,28,12,59,11.30
2018,03,28,13,00,11.40
2018,03,28,13,01,11.50
2018,03,28,13,02,11.60
2018,03,28,13,03,11.50
2018,03,28,13,04,11.50
2018,03,28,13,05,11.50
2018,03,28,13,06,11.50
2018,03,28,13,07,11.50
2018,03,28,13,08,11.40
2018,03,28,13,09,11.40
2018,03,28,13,10,11.50
2018,03,28,13,11,11.50
2018,03,28,13,12,11.50
2018,03,28,13,13,11.40
2018,03,28,13,14,11.40
2018,03,28,13,15,11.30
2018,03,28,13,16,11.30
2018,03,28,13,17,11.30
2018,03,28,13,18,11.30
2018,03,28,13,19,11.20
2018,03,28,13,20,11.20
2018,03,28,13,21,11.30
2018,03,28,13,22,11.30
2018,03,28,13,23,11.30
2018,03,28,13,24,11.30
2018,03,28,13,25,11.30
2018,03,28,13,26,11.30
2018,03,28,13,27,11.20
2018,03,28,13,28,11.20
2018,03,28,13,29,11.10
2018,03,28,13,30,11.00
2018,03,28,13,31,11.00
2018,03,28,13,32,11.00
2018,03,28,13,33,11.10
2018,03,28,13,34,11.10
2018,03,28,13,35,11.10
2018,03,28,13,36,11.20
2018,03,28,13,37,11.30
2018,03,28,13,38,11.30
2018,03,28,13,39,11.40
2018,03,28,13,40,11.40
2018,03,28,13,41,11.50
2018,03,28,13,42,11.50
2018,03,28,13,43,11.60
2018,03,28,13,44,11.60
2018,03,28,13,45,11.60
2018,03,28,13,46,11.70
2018,03,28,13,47,11.70
2018,03,28,13,48,11.70
2018,03,28,13,49,11.70
2018,03,28,13,50,11.60
2018,03,28,13,51,11.60
2018,03,28,13,52,11.60
2018,03,28,13,53,11.70
2018,03,28,13,54,11.70
2018,03,28,13,55,11.80
2018,03,28,13,56,11.80
2018,03,28,13,57,11.90
2018,03,28,13,58,12.00
2018,03,28,13,59,12.00
2018,03,28,14,00,12.00
2018,03,28,14,01,12.00
2018,03,28,14,02,12.00
2018,03,28,14,03,12.00
2018,03,28,14,04,11.90
2018,03,28,14,05,11.90
2018,03,28,14,06,11.90
2018,03,28,14,07,12.00
2018,03,28,14,08,12.00
2018,03,28,14,09,12.00
2018,03,28,14,10,12.00
2018,03,28,14,11,12.00
2018,03,28,14,12,12.10
2018,03,28,14,13,12.10
2018,03,28,14,14,12.00
2018,03,28,14,15,12.00
2018,03,28,14,16,12.10
2018,03,28,14,17,12.20
2018,03,28,14,18,12.20
2018,03,28,14,19,12.10
2018,03,28,14,20,12.00
2018,03,28,14,21,12.00
2018,03,28,14,22,11.90
2018,03,28,14,23,11.80
2018,03,28,14,24,11.80
2018,03,28,14,25,11.80
2018,03,28,14,26,11.80
2018,03,28,14,27,11.80
2018,03,28,14,28,11.90
2018,03,28,14,29,11.90
2018,03,28,14,30,12.00
2018,03,28,14,31,12.00
2018,03,28,14,32,12.00
2018,03,28,14,33,12.00
2018,03,28,14,34,12.10
2018,03,28,14,35,12.20
2018,03,28,14,36,12.30
2018,03,28,14,37,12.30
2018,03,28,14,38,12.20
2018,03,28,14,39,12.20
2018,03,28,14,40,12.20
2018,03,28,14,41,12.20
2018,03,28,14,42,12.10
2018,03,28,14,43,12.10
2018,03,28,14,44,12.10
2018,03,28,14,45,12.00
2018,03,28,14,46,12.00
2018,03,28,14,47,12.10
2018,03,28,14,48,12.10
2018,03,28,14,49,12.10
2018,03,28,14,50,12.10
2018,03,28,14,51,12.10
2018,03,28,14,52,12.00
2018,03,28,14,53,12.00
2018,03,28,14,54,12.00
2018,03,28,14,55,12.00
2018,03,28,14,56,11.90
2018,03,28,14,57,11.90
2018,03,28,14,58,11.90
2018,03,28,14,59,11.80
2018,03,28,15,00,11.80
2018,03,28,15,01,11.80
2018,03,28,15,02,11.80
2018,03,28,15,03,11.80
2018,03,28,15,04,11.80
2018,03,28,15,05,11.80
2018,03,28,15,06,11.80
2018,03,28,15,07,11.80
2018,03,28,15,08,11.80
2018,03,28,15,09,11.80
2018,03,28,15,10,11.80
2018,03,28,15,11,11.70
2018,03,28,15,12,11.60
2018,03,28,15,13,11.50
2018,03,28,15,14,11.60
2018,03,28,15,15,11.60
2018,03,28,15,16,11.60
2018,03,28,15,17,11.60
2018,03,28,15,18,11.60
2018,03,28,15,19,11.60
2018,03,28,15,20,11.60
2018,03,28,15,21,11.50
2018,03,28,15,22,11.40
2018,03,28,15,23,11.40
2018,03,28,15,24,11.40
2018,03,28,15,25,11.40
2018,03,28,15,26,11.40
2018,03,28,15,27,11.30
2018,03,28,15,28,11.30
2018,03,28,15,29,11.30
2018,03,28,15,30,11.20
2018,03,28,15,31,11.30
2018,03,28,15,32,11.30
2018,03,28,15,33,11.40
2018,03,28,15,34,11.40
2018,03,28,15,35,11.40
2018,03,28,15,36,11.40
2018,03,28,15,37,11.30
2018,03,28,15,38,11.10
2018,03,28,15,39,11.10
2018,03,28,15,40,11.00
2018,03,28,15,41,11.00
2018,03,28,15,42,11.00
2018,03,28,15,43,11.00
2018,03,28,15,44,11.00
2018,03,28,15,45,10.90
2018,03,28,15,46,10.90
2018,03,28,15,47,10.90
2018,03,28,15,48,10.90
2018,03,28,15,49,10.90
2018,03,28,15,50,10.90
2018,03,28,15,51,10.80
2018,03,28,15,52,10.80
2018,03,28,15,53,10.80
2018,03,28,15,54,10.80
2018,03,28,15,55,10.80
2018,03,28,15,56,10.80
2018,03,28,15,57,10.80
2018,03,28,15,58,10.80
2018,03,28,15,59,10.70
2018,03,28,16,00,10.70
2018,03,28,16,01,10.70
2018,03,28,16,02,10.60
2018,03,28,16,03,10.60
2018,03,28,16,04,10.70
2018,03,28,16,05,10.70
2018,03,28,16,06,10.70
2018,03,28,16,07,10.70
2018,03,28,16,08,10.70
2018,03,28,16,09,10.70
2018,03,28,16,10,10.60
2018,03,28,16,11,10.60
2018,03,28,16,12,10.60
2018,03,28,16,13,10.60
2018,03,28,16,14,10.60
2018,03,28,16,15,10.70
2018,03,28,16,16,10.70
2018,03,28,16,17,10.70
2018,03,28,16,18,10.70
2018,03,28,16,19,10.70
2018,03,28,16,20,10.60
2018,03,28,16,21,10.60
2018,03,28,16,22,10.70
2018,03,28,16,23,10.70
2018,03,28,16,24,10.80
2018,03,28,16,25,10.80
2018,03,28,16,26,10.80
2018,03,28,16,27,10.80
2018,03,28,16,28,10.80
2018,03,28,16,29,10.80
2018,03,28,16,30,10.80
2018,03,28,16,31,10.80
2018,03,28,16,32,10.90
2018,03,28,16,33,10.90
2018,03,28,16,34,10.90
2018,03,28,16,35,10.80
2018,03,28,16,36,10.80
2018,03,28,16,37,10.80
2018,03,28,16,38,10.80
2018,03,28,16,39,10.80
2018,03,28,16,40,10.80
2018,03,28,16,41,10.80
2018,03,28,16,42,10.80
2018,03,28,16,43,10.80
2018,03,28,16,44,10.80
2018,03,28,16,45,10.80
2018,03,28,16,46,10.80
2018,03,28,16,47,10.80
2018,03,28,16,48,10.90
2018,03,28,16,49,11.00
2018,03,28,16,50,10.90
2018,03,28,16,51,10.90
2018,03,28,16,52,10.80
2018,03,28,16,53,10.80
2018,03,28,16,54,10.80
2018,03,28,16,55,10.70
2018,03,28,16,56,10.80
2018,03,28,16,57,10.80
2018,03,28,16,58,10.70
2018,03,28,16,59,10.70
2018,03,28,17,00,10.80
2018,03,28,17,01,10.80
2018,03,28,17,02,10.80
2018,03,28,17,03,10.80
2018,03,28,17,04,10.80
2018,03,28,17,05,10.80
2018,03,28,17,06,10.70
2018,03,28,17,07,10.70
2018,03,28,17,08,10.70
2018,03,28,17,09,10.70
2018,03,28,17,10,10.70
2018,03,28,17,11,10.60
2018,03,28,17,12,10.60
2018,03,28,17,13,10.60
2018,03,28,17,14,10.60
2018,03,28,17,15,10.60
2018,03,28,17,16,10.60
2018,03,28,17,17,10.60
2018,03,28,17,18,10.60
2018,03,28,17,19,10.60
2018,03,28,17,20,10.70
2018,03,28,17,21,10.70
2018,03,28,17,22,10.70
2018,03,28,17,23,10.70
2018,03,28,17,24,10.80
2018,03,28,17,25,10.80
2018,03,28,17,26,10.80
2018,03,28,17,27,10.80
2018,03,28,17,28,10.70
2018,03,28,17,29,10.70
2018,03,28,17,30,10.70
2018,03,28,17,31,10.70
2018,03,28,17,32,10.70
2018,03,28,17,33,10.70
2018,03,28,17,34,10.70
2018,03,28,17,35,10.70
2018,03,28,17,36,10.60
2018,03,28,17,37,10.60
2018,03,28,17,38,10.50
2018,03,28,17,39,10.50
2018,03,28,17,40,10.50
2018,03,28,17,41,10.50
2018,03,28,17,42,10.50
2018,03,28,17,43,10.50
2018,03,28,17,44,10.50
2018,03,28,17,45,10.50
2018,03,28,17,46,10.50
2018,03,28,17,47,10.50
2018,03,28,17,48,10.50
2018,03,28,17,49,10.50
2018,03,28,17,50,10.40